Flag for U.S.A. Weather past 2 weeks in Greeley, Colorado, U.S.A.

Now
41 °F

Sunny.


Feels Like: 41 °F
Forecast: 28 / 60 °F
Wind: No wind

Location: Greeley / Weld

Current Time: Jan 26, 2015 at 9:54:59 AM

Latest Report: Jan 26, 2015 at 9:15 AM


Visibility: 10 mi

Pressure: 30.24 "Hg

Humidity: 57%

Dew point: 27 °F

Location of GreeleyLocation

Historic Weather in Greeley — Graph

°F

Greeley temperature yesterday

Maximum temperature yesterday: 59 °F (at 3:15 PM)
Minimum temperature yesterday: 25 °F (at 5:35 AM)
Average temperature yesterday: 37 °F

Past Weeks' High & Low Weather Summary

 TemperatureHumidityPressure
High59 °F (Jan 25, 3:15 PM)86% (Jan 11, 9:35 PM)30.40 "Hg (Jan 11, 9:35 PM)
Low9 °F (Jan 15, 4:35 AM)24% (Jan 17, 12:55 PM)29.82 "Hg (Jan 16, 4:15 PM)
Average31 °F63%30.14 "Hg
* Reported Jan 11 8:15 AM — Jan 26 8:35 AM, Greeley, Weather by CustomWeather, © 2014

Note: Actual official high and low records may vary slightly from our data, if they occured in-between our weather recording intervals... More about our weather records

Advertising

Greeley weather history for previous 24 hours

 ConditionsComfort  
Time TempWeatherWind HumidityBarometerVisibility
8:35 AM
Jan 26
36 °FSunny.No wind65%30.24 "Hg10 mi
8:15 AM32 °FSunny.No wind75%30.24 "Hg10 mi
7:55 AM30 °FSunny.No wind69%30.23 "Hg10 mi
7:35 AM28 °FSunny.No wind69%30.22 "Hg10 mi
7:15 AM27 °FSunny.No wind69%30.21 "Hg10 mi
6:55 AM27 °FClear.No wind69%30.21 "Hg10 mi
6:35 AM27 °FClear.3 mph74%30.21 "Hg10 mi
6:15 AM28 °FClear.6 mph74%30.20 "Hg10 mi
5:55 AM28 °FClear.No wind69%30.20 "Hg10 mi
5:35 AM28 °FClear.7 mph74%30.19 "Hg10 mi
4:55 AM28 °FClear.No wind74%30.18 "Hg10 mi
4:35 AM28 °FClear.No wind74%30.18 "Hg10 mi
3:55 AM30 °FClear.No wind69%30.18 "Hg10 mi
3:35 AM28 °FClear.7 mph74%30.17 "Hg10 mi
3:15 AM28 °FClear.7 mph74%30.18 "Hg10 mi
2:55 AM28 °FClear.3 mph74%30.18 "Hg10 mi
2:35 AM28 °FClear.5 mph74%30.18 "Hg10 mi
2:15 AM30 °FClear.6 mph69%30.18 "Hg10 mi
1:55 AM30 °FClear.5 mph69%30.18 "Hg10 mi
1:35 AM28 °FClear.5 mph74%30.18 "Hg10 mi
1:15 AM28 °FClear.No wind74%30.18 "Hg10 mi
12:55 AM28 °FClear.5 mph74%30.18 "Hg10 mi
12:35 AM28 °FClear.5 mph74%30.18 "Hg10 mi
12:15 AM30 °FClear.5 mph69%30.19 "Hg10 mi
11:55 PM
Jan 25
30 °FClear.5 mph69%30.19 "Hg10 mi
11:35 PM28 °FClear.6 mph74%30.20 "Hg10 mi
11:15 PM28 °FClear.6 mph74%30.19 "Hg10 mi
10:55 PM30 °FClear.5 mph69%30.18 "Hg10 mi
10:35 PM30 °FClear.3 mph69%30.17 "Hg10 mi
10:15 PM30 °FClear.5 mph69%30.18 "Hg10 mi
9:55 PM30 °FClear.No wind69%30.17 "Hg10 mi
9:35 PM28 °FClear.5 mph74%30.18 "Hg10 mi
9:15 PM32 °FClear.No wind69%30.17 "Hg10 mi
8:55 PM34 °FClear.6 mph65%30.17 "Hg10 mi
8:35 PM32 °FClear.No wind69%30.16 "Hg10 mi
8:15 PM34 °FClear.7 mph65%30.16 "Hg10 mi
7:55 PM30 °FClear.5 mph69%30.16 "Hg10 mi
7:35 PM36 °FClear.No wind56%30.16 "Hg10 mi
7:15 PM36 °FClear.5 mph65%30.15 "Hg10 mi
6:55 PM39 °FClear.3 mph56%30.15 "Hg10 mi
6:35 PM39 °FClear.No wind56%30.14 "Hg10 mi
6:15 PM43 °FClear.6 mph53%30.14 "Hg10 mi
5:55 PM41 °FClear.7 mph53%30.13 "Hg10 mi
5:35 PM45 °FClear.5 mph53%30.12 "Hg10 mi
5:15 PM48 °FClear.3 mph50%30.11 "Hg10 mi
4:55 PM48 °FSunny.No wind46%30.10 "Hg10 mi
4:35 PM54 °FSunny.5 mph41%30.10 "Hg10 mi
4:15 PM55 °FSunny.3 mph38%30.10 "Hg10 mi
3:55 PM55 °FSunny.6 mph38%30.09 "Hg10 mi
3:35 PM57 °FSunny.7 mph36%30.08 "Hg10 mi
3:15 PM59 °FSunny.6 mph31%30.08 "Hg10 mi
2:35 PM57 °FSunny.5 mph33%30.07 "Hg10 mi
2:15 PM55 °FSunny.6 mph38%30.07 "Hg10 mi
1:55 PM55 °FSunny.3 mph38%30.07 "Hg10 mi
1:35 PM52 °FSunny.3 mph44%30.08 "Hg10 mi
1:15 PM52 °FSunny.5 mph44%30.09 "Hg10 mi
12:55 PM52 °FSunny.No wind44%30.10 "Hg10 mi
12:35 PM48 °FPassing clouds.No wind50%30.11 "Hg10 mi
12:15 PM45 °FScattered clouds.3 mph53%30.12 "Hg10 mi
11:55 AM43 °FOvercast.No wind57%30.14 "Hg10 mi
11:35 AM41 °FOvercast.3 mph57%30.15 "Hg10 mi
11:15 AM39 °FOvercast.No wind61%30.15 "Hg10 mi
10:55 AM37 °FOvercast.3 mph65%30.17 "Hg10 mi
10:35 AM37 °FOvercast.No wind65%30.16 "Hg10 mi
10:15 AM36 °FOvercast.No wind70%30.17 "Hg10 mi
9:55 AM34 °FOvercast.3 mph75%30.17 "Hg10 mi
9:35 AM34 °FOvercast.6 mph75%30.16 "Hg10 mi
9:15 AM34 °FOvercast.No wind70%30.16 "Hg10 mi
Weather by CustomWeather, © 2014

See weather overviewHow to use our weather pages